Tracking 26922 objects as of 29-Jan-2023
HD Live streaming from Space Station
objects crossing your sky now

PSLV R/B

Track PSLV R/B now!
10-day predictions


NORAD ID: 41242
Int'l Code: 2016-003B
Perigee: 338.7 km
Apogee: 20,684.4 km
Inclination: 19.3 °
Period: 363.8 minutes
Semi major axis: 16882 km
RCS: Unknown
Launch date: January 20, 2016
Source: India (IND)
Launch site: SRIHARIKOTA (SRI)

Note: This is a ROCKET BODY
Your satellite tracking list
Your tracking list is empty




NASA's NSSDC Master Catalog

Two Line Element Set (TLE):
1 41242U 16003B   23028.08418956  .00002335  00000-0  10722-2 0  9996
2 41242  19.3320 321.1052 6025640 170.4249 210.5108  3.95772006101252
Source of the keplerian elements: AFSPC